KUIPER-00099 (65138 NORAD) Tracking and Keplerian Element Data

This shows tracking and keplerian element data for the satellite.

Feedback or suggestion? Click here.




ElementValue
Catalog65138
NameKUIPER-00099
Epoch Orbit584
Epoch Day354.25003472
Epoch Year2025
RAAN144.3323
Inclination51.9009
Eccentricity0.0001149
Argument of Perigee123.2184
Mean Anonmoly323.389
Mean Motion14.79863329
Decay Rate0.00029471
L11 65138U 25171G 25354.25003472 .00029471 00000+0 38843-2 0 9991
L22 65138 51.9009 144.3323 0001149 123.2184 323.3890 14.79863329 5842



Live tracking and technical data element details for KUIPER-00099 (NORAD 65138). KUIPER-00099 can be tracked NOW for your location showing map with azimuth and elevation plus other details from your city location.







IsCatalogInMostPopularTable: catalog: 65138, numindb: 7
Update: records affected: 1



GetName: 65138 KUIPER-00099

Hit Count: updated at: Tue, 21 Apr 2026 20:31:33 GMT